Location: Brantley
(31.5822°N, 86.2569°W)
Time: 02:41:27
(UTC+00:00)

Vanguard 3 - Pass Details

Date: 23 February 2026
Orbit: 507 x 3205 km, 33.4° (Epoch: 13 March)

Event Time Altitude Azimuth Distance (km) Brightness Sun altitude
Rises 17:05:19 0° 213° (SSW) 7,135 12.3 46.9°
Reaches altitude 10° 17:10:50 10° 206° (SSW) 6,099 12.2 47.2°
Maximum altitude 17:27:05 37° 148° (SSE) 3,707 12.3 48.1°
Drops below altitude 10° 17:38:54 10° 87° (E) 4,503 11.1 48.5°
Sets 17:42:12 0° 79° (E) 5,159 11.2 48.6°
